Regional Weather Roundup
Issued by NWS Newport/Morehead, NC

Current Version | Previous Version | Graphics & Text | Print | Product List | Glossary On
Versions: 1 2 3 4 5 6 7 8 9 10 11 12 13 14 15 16 17 18 19 20 21 22 23 24 25 26 27 28 29 30 31 32 33 34 35 36 37 38 39 40 41 42 43 44 45 46 47 48 49 50
000 ASUS42 KMHX 251113 RWRMHX WEATHER ROUNDUP FOR EASTERN NORTH CAROLINA NATIONAL WEATHER SERVICE NEWPORT/MOREHEAD CITY NC 600 AM EST SAT FEB 25 2017 NOTE: "FAIR" INDICATES FEW OR NO CLOUDS BELOW 12,000 FEET WITH NO SIGNIFICANT WEATHER AND/OR OBSTRUCTIONS TO VISIBILITY NCZ015>017-031-032-045>047-102-103-251200- NORTH COAST CITY SKY/WX TMP DP RH WIND PRES REMARKS EDENTON FOG 51 51 100 CALM 29.79S VSB 1/2 ELIZABETH CITY FOG 49 49 100 CALM 29.78S VSB 1/2 KITTY HAWK NOT AVBL MANTEO PTCLDY 51 51 100 CALM 29.78F FOG $$ NCZ045>047-081-094-103-104-251200- CENTRAL COAST CITY SKY/WX TMP DP RH WIND PRES REMARKS FRISCO CLEAR 60 57 89 N5 29.77F FOG $$ NCZ095-097-098-100-101-251200- SOUTHERN COAST CITY SKY/WX TMP DP RH WIND PRES REMARKS BEAUFORT PTCLDY 53 52 96 CALM 29.78S CEDAR ISLAND NOT AVBL JACKSONVILLE N/A 49 49 100 CALM 29.78R VSB 1 PINEY ISLAND FOG N/A N/A N/A N3 29.77F VSB 1/2 WILMINGTON PTCLDY 50 50 100 CALM 29.79R FOG $$ NCZ011>013-027>030-043-044-078>080-089-090>093-098-251200- COASTAL PLAIN CITY SKY/WX TMP DP RH WIND PRES REMARKS AHOSKIE FOG 47 47 99 CALM 29.79S VSB 1/4 CLINTON PTCLDY 52 52 100 CALM 29.80R FOG ELIZABETHTOWN N/A 53 53 100 CALM 29.79R FOG GOLDSBORO FOG 52 52 100 CALM 29.77S VSB 3/4 GREENVILLE FOG 48 48 100 CALM 29.81R VSB 1/4 HAVELOCK PTCLDY 50 49 96 VRB1 29.79S FOG KENANSVILLE FOG 48 48 100 CALM 29.79R VSB 1/2 KINSTON FOG 50 50 100 CALM 29.79R VSB 1 NEW BERN FOG 49 49 100 CALM 29.79S VSB 1/2 RICHLANDS FOG 46 46 100 CALM 29.79R VSB 1 ROCKY MOUNT PTCLDY 50 50 100 CALM 29.79R WASHINGTON CLOUDY 48 48 98 CALM 29.78S FOG WHITEVILLE FOG 53 52 96 CALM 29.79R VSB 3/4 $$ AMZ130-135-150-152-154-156-158-170-250-252-270-ANZ085-086-088-633-658-670-251200- MARINE OBSERVATIONS STATION/POSITION TIME TEMP WIND PRES WAVE SWELL AIR SEA DIR/SP/G HT/PER HT/PER (UTC) (F) (DEG/KT/KT) (MB) (FT/S) (FT/S) CHESAPEAKE LIGHT NOT AVBL 64 E VA BEACH 1050 55 54 350/ 4/ 6 1008.3 7/11 7/11 DUCK 1048 54 49 100/ 3/ 4 1007.7 2 E DUCK 1100 50 N/A 5/10 2/11 OREGON INLET 1048 30/ 3/ 5 N/A 13E OREGON INLT NOT AVBL HATTERAS CG 1048 62 63 360/ 3/ 4 1007.9 DIAMOND BUOY 1050 70 76 210/ 4/ 6 1007.9 8/11 8/11 CAPE LOOKOUT 1100 62 360/ 2/ 3 1007.9 BEAUFORT LAB 1048 59 62 10/ 2/ 3 1007.2 30 SE NEW RVR IN 1008 65 10/ 4/ 6 1008.1 30 SE NEW RVR IN 1043 69 N/A 7/10 3/11 27 SE WRIGHTSVLE 1008 65 65 330/ 2/ 6 1007.6 5 SE WRIGHTSVLE 1008 59 58 220/ 2/ 4 1008.0 225 S CAPE HAT 1050 69 70 190/ 6/ 8 1007.0 10/10 10/10 41 SE CHARLESTON 1050 69 71 220/ 4/ 6 1008.6 7/11 7/11 $$

USA.gov is the U.S. government's official web portal to all federal, state and local government web resources and services.